EZY84BY EGCC-LPPR

Flight info

Callsign EZY84BY
Flight time 2h 8m
Altitude 36000
Route ASMIM DCT NOKIN P17 BEPHE/N0444F360 DCT OSSEP DCT ELNIF DCT ZESPE DCT DAWLY/N0452F380 DCT BHD DCT SALCO/N0451F370 DCT IBISU DCT LOTEE DCT ELTEP/N0381F230 T328 ASPOR
Aircraft A320/M-SDE3FGHIRWY/LB1

Departure

Time 2026-05-04 13:09
Airport Manchester Airport (EGCC)

Arrival

Time 2026-05-04 15:18
Airport Francisco de Sá Carneiro Airport (LPPR)
Time Latitude Longitude Altitude Speed Heading
2026-05-04 12:26 53.35981 -2.27395 255 ft 0 kts 275°
2026-05-04 12:55 53.35981 -2.27396 255 ft 0 kts 275°
2026-05-04 12:57 53.35980 -2.27387 255 ft 3 kts 272°
2026-05-04 12:57 53.35982 -2.27352 255 ft 3 kts 242°
2026-05-04 12:58 53.35996 -2.27326 255 ft 3 kts 197°
2026-05-04 12:58 53.36006 -2.27322 255 ft 0 kts 179°
2026-05-04 13:00 53.35999 -2.27322 255 ft 4 kts 180°
2026-05-04 13:01 53.35952 -2.27323 255 ft 9 kts 181°
2026-05-04 13:01 53.35890 -2.27323 255 ft 8 kts 180°
2026-05-04 13:01 53.35836 -2.27323 255 ft 7 kts 180°
2026-05-04 13:01 53.35764 -2.27374 254 ft 16 kts 228°
2026-05-04 13:02 53.35691 -2.27527 251 ft 18 kts 230°
2026-05-04 13:02 53.35618 -2.27662 254 ft 15 kts 224°
2026-05-04 13:02 53.35536 -2.27793 250 ft 18 kts 224°
2026-05-04 13:02 53.35439 -2.27950 245 ft 20 kts 224°
2026-05-04 13:03 53.35381 -2.28045 242 ft 2 kts 224°
2026-05-04 13:03 53.35379 -2.28048 242 ft 0 kts 224°
2026-05-04 13:03 53.35376 -2.28053 242 ft 4 kts 225°
2026-05-04 13:04 53.35323 -2.28142 239 ft 13 kts 225°
2026-05-04 13:04 53.35256 -2.28257 238 ft 14 kts 228°
2026-05-04 13:04 53.35188 -2.28393 231 ft 16 kts 231°
2026-05-04 13:04 53.35109 -2.28557 227 ft 20 kts 231°
2026-05-04 13:05 53.35028 -2.28719 222 ft 18 kts 227°
2026-05-04 13:05 53.34939 -2.28873 217 ft 19 kts 226°
2026-05-04 13:05 53.34848 -2.29033 212 ft 19 kts 227°
2026-05-04 13:05 53.34768 -2.29194 207 ft 19 kts 232°
2026-05-04 13:06 53.34684 -2.29330 209 ft 4 kts 204°
2026-05-04 13:06 53.34682 -2.29331 208 ft 0 kts 202°
2026-05-04 13:06 53.34681 -2.29332 208 ft 1 kts 202°
2026-05-04 13:07 53.34643 -2.29347 206 ft 13 kts 186°
2026-05-04 13:07 53.34555 -2.29305 209 ft 13 kts 139°
2026-05-04 13:07 53.34555 -2.29188 214 ft 8 kts 55°
2026-05-04 13:07 53.34582 -2.29137 210 ft 3 kts 51°
2026-05-04 13:08 53.34582 -2.29136 210 ft 0 kts 51°
2026-05-04 13:08 53.34649 -2.28997 208 ft 48 kts 52°
2026-05-04 13:08 53.35003 -2.28261 227 ft 113 kts 50°
2026-05-04 13:09 53.35621 -2.27029 262 ft 161 kts 48°
2026-05-04 13:09 53.36331 -2.25521 800 ft 167 kts 51°
2026-05-04 13:09 53.37062 -2.23952 1481 ft 173 kts 52°
2026-05-04 13:09 53.37832 -2.22329 2011 ft 186 kts 51°
2026-05-04 13:10 53.38878 -2.20872 2342 ft 210 kts 22°
2026-05-04 13:10 53.40394 -2.20577 2750 ft 235 kts 347°
2026-05-04 13:10 53.41844 -2.22002 3252 ft 255 kts 308°
2026-05-04 13:10 53.42549 -2.24737 4066 ft 262 kts 282°
2026-05-04 13:11 53.42952 -2.27759 4756 ft 268 kts 286°
2026-05-04 13:11 53.43627 -2.30654 4956 ft 267 kts 294°
2026-05-04 13:11 53.44426 -2.33466 5002 ft 266 kts 297°
2026-05-04 13:11 53.45273 -2.36231 5006 ft 266 kts 298°
2026-05-04 13:12 53.46140 -2.39000 5512 ft 269 kts 298°
2026-05-04 13:12 53.46827 -2.41924 6483 ft 272 kts 281°
2026-05-04 13:12 53.46849 -2.45102 7348 ft 276 kts 261°
2026-05-04 13:12 53.46494 -2.48281 8236 ft 278 kts 259°
2026-05-04 13:13 53.46133 -2.51494 9126 ft 282 kts 260°
2026-05-04 13:13 53.45767 -2.54754 10005 ft 286 kts 260°
2026-05-04 13:13 53.45366 -2.58106 10474 ft 304 kts 255°
2026-05-04 13:13 53.44545 -2.61526 10754 ft 328 kts 241°
2026-05-04 13:14 53.43157 -2.64628 11366 ft 338 kts 226°
2026-05-04 13:14 53.41306 -2.67096 12091 ft 343 kts 211°
2026-05-04 13:14 53.39121 -2.68752 12850 ft 347 kts 201°
2026-05-04 13:14 53.36850 -2.70160 13641 ft 350 kts 200°
2026-05-04 13:15 53.34561 -2.71576 14338 ft 353 kts 200°
2026-05-04 13:15 53.32248 -2.73013 14991 ft 356 kts 200°
2026-05-04 13:15 53.29914 -2.74474 15645 ft 359 kts 200°
2026-05-04 13:15 53.27563 -2.75948 16301 ft 363 kts 200°
2026-05-04 13:16 53.25185 -2.77434 16947 ft 366 kts 200°
2026-05-04 13:16 53.22786 -2.78928 17586 ft 370 kts 200°
2026-05-04 13:16 53.20364 -2.80434 18230 ft 373 kts 200°
2026-05-04 13:16 53.17921 -2.81950 18776 ft 377 kts 200°
2026-05-04 13:17 53.15451 -2.83478 19286 ft 381 kts 200°
2026-05-04 13:17 53.12951 -2.85021 19793 ft 385 kts 199°
2026-05-04 13:17 53.10417 -2.86523 20299 ft 388 kts 195°
2026-05-04 13:17 53.07763 -2.87417 20796 ft 391 kts 185°
2026-05-04 13:18 53.05041 -2.87498 21280 ft 393 kts 174°
2026-05-04 13:18 53.02329 -2.86849 21779 ft 395 kts 169°
2026-05-04 13:18 52.99605 -2.86091 22296 ft 398 kts 169°
2026-05-04 13:18 52.96865 -2.85340 22790 ft 401 kts 169°
2026-05-04 13:19 52.94099 -2.84588 23291 ft 404 kts 168°
2026-05-04 13:19 52.92252 -2.84089 23625 ft 406 kts 168°
2026-05-04 13:19 52.88505 -2.83079 24173 ft 410 kts 168°
2026-05-04 13:19 52.85682 -2.82320 24578 ft 412 kts 168°
2026-05-04 13:20 52.82846 -2.81559 24981 ft 414 kts 168°
2026-05-04 13:20 52.79985 -2.80788 25374 ft 417 kts 168°
2026-05-04 13:20 52.77120 -2.80014 25760 ft 419 kts 168°
2026-05-04 13:20 52.74229 -2.79240 26143 ft 422 kts 168°
2026-05-04 13:21 52.71321 -2.78466 26523 ft 424 kts 168°
2026-05-04 13:21 52.68401 -2.77690 26897 ft 426 kts 168°
2026-05-04 13:21 52.65464 -2.76909 27272 ft 429 kts 168°
2026-05-04 13:21 52.62507 -2.76149 27654 ft 432 kts 170°
2026-05-04 13:22 52.59489 -2.75919 28023 ft 437 kts 179°
2026-05-04 13:22 52.56438 -2.76176 28390 ft 440 kts 180°
2026-05-04 13:22 52.53368 -2.76447 28757 ft 442 kts 180°
2026-05-04 13:22 52.50290 -2.76721 29115 ft 444 kts 180°
2026-05-04 13:23 52.47193 -2.76995 29461 ft 446 kts 180°
2026-05-04 13:23 52.44087 -2.77268 29796 ft 448 kts 180°
2026-05-04 13:23 52.40969 -2.77542 30126 ft 450 kts 180°
2026-05-04 13:23 52.37840 -2.77812 30402 ft 451 kts 180°
2026-05-04 13:24 52.34696 -2.78078 30683 ft 453 kts 181°
2026-05-04 13:24 52.31538 -2.78346 30952 ft 455 kts 181°
2026-05-04 13:24 52.28374 -2.78620 31228 ft 456 kts 181°
2026-05-04 13:25 52.22055 -2.79172 32016 ft 453 kts 181°
2026-05-04 13:25 52.18910 -2.79442 32394 ft 452 kts 181°
2026-05-04 13:25 52.15774 -2.79708 32768 ft 450 kts 181°
2026-05-04 13:25 52.13699 -2.79882 33017 ft 450 kts 181°
2026-05-04 13:26 52.10577 -2.80145 33396 ft 449 kts 181°
2026-05-04 13:26 52.06451 -2.80492 33892 ft 448 kts 181°
2026-05-04 13:26 52.03339 -2.80755 34224 ft 447 kts 181°
2026-05-04 13:26 52.01239 -2.80935 34431 ft 447 kts 181°
2026-05-04 13:27 51.98137 -2.81202 34727 ft 446 kts 181°
2026-05-04 13:27 51.95040 -2.81469 35017 ft 446 kts 181°
2026-05-04 13:27 51.91941 -2.81733 35295 ft 445 kts 181°
2026-05-04 13:27 51.88852 -2.81988 35570 ft 445 kts 181°
2026-05-04 13:28 51.85762 -2.82250 35838 ft 444 kts 182°
2026-05-04 13:28 51.82680 -2.82655 36016 ft 445 kts 185°
2026-05-04 13:28 51.76567 -2.83950 36058 ft 442 kts 187°
2026-05-04 13:29 51.70492 -2.85444 36059 ft 441 kts 187°
2026-05-04 13:29 51.64418 -2.86832 36056 ft 440 kts 186°
2026-05-04 13:30 51.58346 -2.88117 36050 ft 439 kts 186°
2026-05-04 13:30 51.52407 -2.90419 36027 ft 441 kts 199°
2026-05-04 13:31 51.46695 -2.93867 36023 ft 441 kts 199°
2026-05-04 13:31 51.40948 -2.97334 36021 ft 441 kts 199°
2026-05-04 13:32 51.35190 -3.00788 36019 ft 442 kts 199°
2026-05-04 13:32 51.29430 -3.04218 36016 ft 442 kts 199°
2026-05-04 13:33 51.23659 -3.07645 36012 ft 442 kts 199°
2026-05-04 13:33 51.17887 -3.11070 36011 ft 442 kts 199°
2026-05-04 13:34 51.12109 -3.14481 36008 ft 443 kts 199°
2026-05-04 13:34 51.06331 -3.17886 36005 ft 443 kts 199°
2026-05-04 13:35 50.97665 -3.22989 36012 ft 443 kts 199°
2026-05-04 13:36 50.91883 -3.26385 36022 ft 443 kts 199°
2026-05-04 13:36 50.86107 -3.29767 36026 ft 443 kts 199°
2026-05-04 13:37 50.80319 -3.33144 36032 ft 442 kts 199°
2026-05-04 13:37 50.74536 -3.36499 36034 ft 442 kts 199°
2026-05-04 13:38 50.68760 -3.39850 36039 ft 442 kts 199°
2026-05-04 13:38 50.62993 -3.43184 36039 ft 441 kts 199°
2026-05-04 13:39 50.57180 -3.46259 36038 ft 440 kts 191°
2026-05-04 13:39 50.51122 -3.47470 36038 ft 439 kts 185°
2026-05-04 13:40 50.45053 -3.48491 36036 ft 438 kts 186°
2026-05-04 13:40 50.38990 -3.49497 36033 ft 438 kts 184°
2026-05-04 13:41 50.32904 -3.49999 36041 ft 437 kts 181°
2026-05-04 13:41 50.26820 -3.50176 36041 ft 437 kts 180°
2026-05-04 13:42 50.17756 -3.50537 36038 ft 436 kts 181°
2026-05-04 13:42 50.11691 -3.50889 36041 ft 436 kts 182°
2026-05-04 13:43 50.05589 -3.51239 36039 ft 436 kts 181°
2026-05-04 13:43 49.99531 -3.51570 36039 ft 436 kts 181°
2026-05-04 13:44 49.93471 -3.51905 36041 ft 436 kts 182°
2026-05-04 13:44 49.87410 -3.52227 36036 ft 435 kts 181°
2026-05-04 13:45 49.81352 -3.52547 36039 ft 435 kts 182°
2026-05-04 13:45 49.75301 -3.52885 36038 ft 435 kts 184°
2026-05-04 13:46 49.69400 -3.54834 36031 ft 435 kts 195°
2026-05-04 13:46 49.63582 -3.57430 36032 ft 435 kts 195°
2026-05-04 13:47 49.57774 -3.59996 36028 ft 434 kts 195°
2026-05-04 13:47 49.51963 -3.62550 36031 ft 434 kts 195°
2026-05-04 13:48 49.46165 -3.65088 36029 ft 433 kts 195°
2026-05-04 13:48 49.40362 -3.67623 36025 ft 433 kts 195°
2026-05-04 13:49 49.34560 -3.70148 36027 ft 433 kts 195°
2026-05-04 13:49 49.28768 -3.72668 36025 ft 433 kts 195°
2026-05-04 13:50 49.23012 -3.75172 36023 ft 432 kts 195°
2026-05-04 13:50 49.17211 -3.77682 36019 ft 432 kts 195°
2026-05-04 13:51 49.11417 -3.80179 36017 ft 433 kts 195°
2026-05-04 13:51 49.05622 -3.82677 36012 ft 433 kts 195°
2026-05-04 13:52 48.96930 -3.86410 36011 ft 433 kts 195°
2026-05-04 13:53 48.91129 -3.88889 36005 ft 433 kts 195°
2026-05-04 13:53 48.85332 -3.91374 36003 ft 433 kts 195°
2026-05-04 13:54 48.76633 -3.95085 36001 ft 433 kts 195°
2026-05-04 13:55 48.67929 -3.98780 35998 ft 433 kts 195°
2026-05-04 13:55 48.59217 -4.02457 35999 ft 433 kts 195°
2026-05-04 13:56 48.53413 -4.04897 35998 ft 433 kts 195°
2026-05-04 13:57 48.44715 -4.08560 35984 ft 432 kts 195°
2026-05-04 13:58 48.33104 -4.13424 35989 ft 433 kts 195°
2026-05-04 13:58 48.30043 -4.14695 35996 ft 434 kts 195°
2026-05-04 13:59 48.24335 -4.17073 35999 ft 434 kts 195°
2026-05-04 14:00 48.15603 -4.20696 35993 ft 434 kts 195°
2026-05-04 14:00 48.06904 -4.24289 35992 ft 434 kts 195°
2026-05-04 14:01 48.01077 -4.26698 36004 ft 434 kts 195°
2026-05-04 14:02 47.92339 -4.30291 36000 ft 434 kts 195°
2026-05-04 14:02 47.86503 -4.32690 36004 ft 434 kts 195°
2026-05-04 14:03 47.80680 -4.35076 35993 ft 434 kts 195°
2026-05-04 14:03 47.74853 -4.37456 35995 ft 434 kts 195°
2026-05-04 14:04 47.67092 -4.40614 35998 ft 435 kts 195°
2026-05-04 14:04 47.61260 -4.42985 35998 ft 435 kts 195°
2026-05-04 14:05 47.52513 -4.46527 36005 ft 434 kts 195°
2026-05-04 14:06 47.46676 -4.48885 35997 ft 434 kts 195°
2026-05-04 14:06 47.40848 -4.51240 35999 ft 434 kts 195°
2026-05-04 14:07 47.35015 -4.53577 35995 ft 434 kts 194°
2026-05-04 14:07 47.29181 -4.55910 36002 ft 434 kts 195°
2026-05-04 14:08 47.23352 -4.58246 36002 ft 434 kts 195°
2026-05-04 14:08 47.17518 -4.60578 35996 ft 435 kts 194°
2026-05-04 14:09 47.08763 -4.64074 36007 ft 435 kts 195°
2026-05-04 14:10 47.00164 -4.68354 35999 ft 435 kts 200°
2026-05-04 14:10 46.94494 -4.71433 36001 ft 435 kts 199°
2026-05-04 14:11 46.88791 -4.74412 35996 ft 435 kts 199°
2026-05-04 14:11 46.80220 -4.78755 36001 ft 434 kts 199°
2026-05-04 14:12 46.74509 -4.81647 36004 ft 434 kts 199°
2026-05-04 14:13 46.65953 -4.85998 36002 ft 434 kts 199°
2026-05-04 14:13 46.60249 -4.88889 36001 ft 434 kts 199°
2026-05-04 14:14 46.54537 -4.91771 35999 ft 434 kts 199°
2026-05-04 14:14 46.46029 -4.96059 35993 ft 434 kts 199°
2026-05-04 14:15 46.34629 -5.01796 35995 ft 433 kts 199°
2026-05-04 14:16 46.26072 -5.06064 35992 ft 433 kts 199°
2026-05-04 14:17 46.17525 -5.10314 35991 ft 433 kts 199°
2026-05-04 14:18 46.08969 -5.14575 35990 ft 433 kts 199°
2026-05-04 14:19 45.97567 -5.20219 35984 ft 433 kts 199°
2026-05-04 14:19 45.91902 -5.23015 35983 ft 433 kts 199°
2026-05-04 14:20 45.86156 -5.25844 35986 ft 433 kts 199°
2026-05-04 14:20 45.80452 -5.28640 35982 ft 433 kts 199°
2026-05-04 14:21 45.71878 -5.32836 35981 ft 434 kts 199°
2026-05-04 14:21 45.66168 -5.35626 35985 ft 434 kts 199°
2026-05-04 14:22 45.60450 -5.38423 35986 ft 434 kts 199°
2026-05-04 14:22 45.54734 -5.41201 35985 ft 434 kts 199°
2026-05-04 14:23 45.46190 -5.45344 35990 ft 434 kts 199°
2026-05-04 14:24 45.40475 -5.48114 35990 ft 434 kts 199°
2026-05-04 14:24 45.34756 -5.50868 35991 ft 434 kts 199°
2026-05-04 14:25 45.29038 -5.53616 35992 ft 434 kts 199°
2026-05-04 14:25 45.20471 -5.57733 35994 ft 433 kts 199°
2026-05-04 14:26 45.14753 -5.60478 35997 ft 433 kts 199°
2026-05-04 14:26 45.09040 -5.63213 35999 ft 433 kts 199°
2026-05-04 14:27 45.03324 -5.65943 35997 ft 433 kts 199°
2026-05-04 14:27 44.97604 -5.68653 35994 ft 433 kts 199°
2026-05-04 14:28 44.91887 -5.71363 35996 ft 433 kts 199°
2026-05-04 14:28 44.86163 -5.74076 35999 ft 433 kts 199°
2026-05-04 14:29 44.74725 -5.79497 35996 ft 434 kts 199°
2026-05-04 14:30 44.69000 -5.82195 35997 ft 434 kts 199°
2026-05-04 14:30 44.63606 -5.85889 35997 ft 432 kts 216°
2026-05-04 14:31 44.61159 -5.88340 36000 ft 432 kts 216°
2026-05-04 14:32 44.51373 -5.98051 35999 ft 432 kts 216°
2026-05-04 14:32 44.46419 -6.02936 36003 ft 432 kts 216°
2026-05-04 14:33 44.41532 -6.07746 36000 ft 432 kts 216°
2026-05-04 14:33 44.36610 -6.12588 35997 ft 432 kts 216°
2026-05-04 14:34 44.31691 -6.17420 36001 ft 432 kts 216°
2026-05-04 14:34 44.26768 -6.22238 36001 ft 432 kts 216°
2026-05-04 14:35 44.21846 -6.27045 35994 ft 432 kts 216°
2026-05-04 14:35 44.16918 -6.31851 35999 ft 432 kts 216°
2026-05-04 14:36 44.11983 -6.36653 36001 ft 432 kts 216°
2026-05-04 14:36 44.07049 -6.41445 36001 ft 433 kts 216°
2026-05-04 14:37 44.02109 -6.46232 35996 ft 433 kts 216°
2026-05-04 14:37 43.97162 -6.51019 36005 ft 433 kts 216°
2026-05-04 14:38 43.92212 -6.55792 36011 ft 433 kts 216°
2026-05-04 14:38 43.87262 -6.60556 36008 ft 433 kts 216°
2026-05-04 14:39 43.82308 -6.65319 36012 ft 433 kts 216°
2026-05-04 14:39 43.77349 -6.70068 36027 ft 433 kts 216°
2026-05-04 14:40 43.69919 -6.77192 36028 ft 433 kts 217°
2026-05-04 14:40 43.64967 -6.81929 36033 ft 433 kts 216°
2026-05-04 14:41 43.60007 -6.86647 36034 ft 433 kts 216°
2026-05-04 14:42 43.50916 -6.95274 36040 ft 433 kts 216°
2026-05-04 14:42 43.45944 -6.99975 36040 ft 433 kts 217°
2026-05-04 14:43 43.40979 -7.04661 36040 ft 432 kts 217°
2026-05-04 14:43 43.36019 -7.09341 36040 ft 432 kts 217°
2026-05-04 14:44 43.31063 -7.14008 36039 ft 432 kts 217°
2026-05-04 14:44 43.26098 -7.18659 36032 ft 432 kts 217°
2026-05-04 14:45 43.21136 -7.23311 36037 ft 431 kts 217°
2026-05-04 14:45 43.16213 -7.27930 36034 ft 431 kts 217°
2026-05-04 14:46 43.11253 -7.32570 36037 ft 431 kts 217°
2026-05-04 14:46 43.06290 -7.37185 36038 ft 431 kts 217°
2026-05-04 14:47 43.01318 -7.41805 36039 ft 432 kts 217°
2026-05-04 14:47 42.96344 -7.46419 36041 ft 431 kts 217°
2026-05-04 14:48 42.91373 -7.51023 36044 ft 432 kts 217°
2026-05-04 14:48 42.86407 -7.55619 36048 ft 431 kts 217°
2026-05-04 14:49 42.81437 -7.60201 36047 ft 431 kts 217°
2026-05-04 14:49 42.76470 -7.64776 36050 ft 430 kts 217°
2026-05-04 14:50 42.71512 -7.69337 36046 ft 430 kts 217°
2026-05-04 14:50 42.66541 -7.73896 36043 ft 430 kts 217°
2026-05-04 14:51 42.61439 -7.78156 36044 ft 434 kts 207°
2026-05-04 14:51 42.55639 -7.80643 36036 ft 438 kts 199°
2026-05-04 14:52 42.49799 -7.82822 36019 ft 438 kts 199°
2026-05-04 14:52 42.46855 -7.83922 35789 ft 438 kts 200°
2026-05-04 14:52 42.43916 -7.85017 35548 ft 438 kts 200°
2026-05-04 14:53 42.40979 -7.86112 35275 ft 438 kts 200°
2026-05-04 14:53 42.38028 -7.87214 34445 ft 442 kts 200°
2026-05-04 14:53 42.35046 -7.88330 33548 ft 446 kts 200°
2026-05-04 14:53 42.32069 -7.89439 32986 ft 440 kts 200°
2026-05-04 14:54 42.29136 -7.90527 32399 ft 435 kts 200°
2026-05-04 14:54 42.26230 -7.91605 31815 ft 430 kts 200°
2026-05-04 14:54 42.23366 -7.92669 31247 ft 424 kts 200°
2026-05-04 14:54 42.20535 -7.93722 30686 ft 419 kts 201°
2026-05-04 14:55 42.17742 -7.94761 30139 ft 414 kts 201°
2026-05-04 14:55 42.14980 -7.95786 29533 ft 408 kts 201°
2026-05-04 14:55 42.12263 -7.96788 29008 ft 401 kts 201°
2026-05-04 14:55 42.09584 -7.97776 28480 ft 395 kts 201°
2026-05-04 14:56 42.06953 -7.98747 27973 ft 389 kts 201°
2026-05-04 14:56 42.04363 -7.99704 27490 ft 383 kts 201°
2026-05-04 14:56 42.01805 -8.00650 26987 ft 378 kts 201°
2026-05-04 14:56 41.99285 -8.01579 26524 ft 373 kts 201°
2026-05-04 14:57 41.96799 -8.02494 26071 ft 367 kts 201°
2026-05-04 14:57 41.94350 -8.03397 25630 ft 362 kts 201°
2026-05-04 14:57 41.91941 -8.04282 25201 ft 357 kts 201°
2026-05-04 14:57 41.89560 -8.05155 24775 ft 353 kts 201°
2026-05-04 14:58 41.87209 -8.06014 24357 ft 347 kts 201°
2026-05-04 14:58 41.84888 -8.06863 23945 ft 344 kts 201°
2026-05-04 14:58 41.82589 -8.07726 23308 ft 344 kts 204°
2026-05-04 14:58 41.80386 -8.08968 22573 ft 342 kts 213°
2026-05-04 14:59 41.78344 -8.10516 21984 ft 341 kts 214°
2026-05-04 14:59 41.76277 -8.12074 21459 ft 340 kts 214°
2026-05-04 14:59 41.72130 -8.15157 20483 ft 337 kts 214°
2026-05-04 15:00 41.70067 -8.16570 20048 ft 339 kts 207°
2026-05-04 15:00 41.67832 -8.17619 19605 ft 340 kts 204°
2026-05-04 15:00 41.65599 -8.18632 19156 ft 338 kts 204°
2026-05-04 15:01 41.61166 -8.20657 18258 ft 335 kts 204°
2026-05-04 15:01 41.58963 -8.21663 17772 ft 334 kts 204°
2026-05-04 15:01 41.56768 -8.22667 17299 ft 332 kts 203°
2026-05-04 15:01 41.54585 -8.23665 16852 ft 331 kts 203°
2026-05-04 15:02 41.52413 -8.24659 16418 ft 330 kts 203°
2026-05-04 15:02 41.50247 -8.25651 15991 ft 328 kts 203°
2026-05-04 15:02 41.48091 -8.26638 15586 ft 327 kts 203°
2026-05-04 15:02 41.45946 -8.27616 15171 ft 325 kts 202°
2026-05-04 15:03 41.43803 -8.28588 14762 ft 324 kts 202°
2026-05-04 15:03 41.41668 -8.29557 14369 ft 323 kts 202°
2026-05-04 15:03 41.39539 -8.30523 13976 ft 322 kts 202°
2026-05-04 15:03 41.37421 -8.31488 13574 ft 321 kts 202°
2026-05-04 15:04 41.35317 -8.32444 13147 ft 319 kts 202°
2026-05-04 15:04 41.33217 -8.33396 12739 ft 317 kts 202°
2026-05-04 15:04 41.31134 -8.34341 12341 ft 316 kts 202°
2026-05-04 15:04 41.29065 -8.35280 11923 ft 314 kts 202°
2026-05-04 15:05 41.27009 -8.36212 11614 ft 308 kts 202°
2026-05-04 15:05 41.25042 -8.37096 11481 ft 288 kts 202°
2026-05-04 15:05 41.23208 -8.37916 11361 ft 270 kts 202°
2026-05-04 15:05 41.21487 -8.38685 11226 ft 253 kts 202°
2026-05-04 15:06 41.19853 -8.39418 10957 ft 243 kts 203°
2026-05-04 15:06 41.18264 -8.40138 10559 ft 240 kts 203°
2026-05-04 15:06 41.16690 -8.40854 10136 ft 239 kts 203°
2026-05-04 15:07 41.13562 -8.42278 9169 ft 236 kts 202°
2026-05-04 15:07 41.12009 -8.42979 8681 ft 235 kts 202°
2026-05-04 15:07 41.10464 -8.43672 8232 ft 234 kts 202°
2026-05-04 15:07 41.08929 -8.44360 7768 ft 233 kts 203°
2026-05-04 15:08 41.07398 -8.45047 7337 ft 231 kts 203°
2026-05-04 15:08 41.05878 -8.45731 6882 ft 230 kts 202°
2026-05-04 15:08 41.04364 -8.46412 6439 ft 229 kts 202°
2026-05-04 15:08 41.02860 -8.47096 5982 ft 227 kts 205°
2026-05-04 15:09 41.01512 -8.48124 5525 ft 221 kts 224°
2026-05-04 15:09 41.00493 -8.49600 5112 ft 215 kts 240°
2026-05-04 15:09 40.99869 -8.51367 4719 ft 209 kts 257°
2026-05-04 15:10 40.99348 -8.54807 4246 ft 178 kts 261°
2026-05-04 15:10 40.99111 -8.56401 4042 ft 176 kts 262°
2026-05-04 15:10 40.98861 -8.59417 4038 ft 156 kts 284°
2026-05-04 15:11 40.99317 -8.60682 4035 ft 152 kts 308°
2026-05-04 15:11 41.00141 -8.61557 4038 ft 154 kts 331°
2026-05-04 15:11 41.01188 -8.61935 4038 ft 158 kts 345°
2026-05-04 15:11 41.02272 -8.62217 4036 ft 159 kts 345°
2026-05-04 15:12 41.03346 -8.62500 4034 ft 159 kts 345°
2026-05-04 15:12 41.04427 -8.62787 4028 ft 159 kts 345°
2026-05-04 15:12 41.05522 -8.63072 3942 ft 160 kts 346°
2026-05-04 15:12 41.06616 -8.63329 3704 ft 159 kts 347°
2026-05-04 15:13 41.07707 -8.63545 3453 ft 159 kts 348°
2026-05-04 15:13 41.08803 -8.63728 3166 ft 158 kts 348°
2026-05-04 15:13 41.09882 -8.63988 2881 ft 157 kts 344°
2026-05-04 15:13 41.10946 -8.64281 2634 ft 157 kts 345°
2026-05-04 15:14 41.12011 -8.64562 2466 ft 155 kts 345°
2026-05-04 15:14 41.13016 -8.64807 2370 ft 138 kts 346°
2026-05-04 15:14 41.13922 -8.65076 2244 ft 129 kts 342°
2026-05-04 15:14 41.14783 -8.65362 2007 ft 126 kts 340°
2026-05-04 15:15 41.15621 -8.65682 1771 ft 124 kts 342°
2026-05-04 15:15 41.16468 -8.65935 1580 ft 124 kts 344°
2026-05-04 15:15 41.17322 -8.66168 1446 ft 125 kts 344°
2026-05-04 15:16 41.19017 -8.66629 1087 ft 123 kts 346°
2026-05-04 15:16 41.19865 -8.66829 1010 ft 124 kts 344°
2026-05-04 15:16 41.21559 -8.67268 592 ft 126 kts 345°
2026-05-04 15:17 41.22413 -8.67509 473 ft 127 kts 343°
2026-05-04 15:17 41.24097 -8.67950 216 ft 110 kts 352°
2026-05-04 15:17 41.24689 -8.68093 206 ft 60 kts 350°
2026-05-04 15:18 41.25034 -8.68180 193 ft 43 kts 357°
2026-05-04 15:18 41.25226 -8.68125 183 ft 16 kts 18°
2026-05-04 15:18 41.25291 -8.68057 182 ft 12 kts 89°
2026-05-04 15:19 41.25181 -8.67994 187 ft 8 kts 169°
2026-05-04 15:19 41.25128 -8.67981 196 ft 11 kts 169°
2026-05-04 15:19 41.24976 -8.67941 199 ft 11 kts 169°
2026-05-04 15:20 41.24908 -8.67921 204 ft 8 kts 163°
2026-05-04 15:20 41.24847 -8.67892 201 ft 19 kts 156°
2026-05-04 15:20 41.24701 -8.67816 210 ft 21 kts 167°
2026-05-04 15:20 41.24570 -8.67781 216 ft 17 kts 168°
2026-05-04 15:21 41.24462 -8.67751 221 ft 18 kts 168°
2026-05-04 15:21 41.24326 -8.67712 228 ft 19 kts 162°
2026-05-04 15:21 41.24262 -8.67638 233 ft 0 kts 129°
2026-05-04 15:22 41.24250 -8.67617 234 ft 12 kts 128°
2026-05-04 15:22 41.24132 -8.67462 242 ft 9 kts 154°
2026-05-04 15:23 41.24073 -8.67432 242 ft 9 kts 163°
2026-05-04 15:23 41.24014 -8.67419 242 ft 8 kts 175°
2026-05-04 15:23 41.23969 -8.67439 242 ft 7 kts 212°
2026-05-04 15:23 41.23928 -8.67438 241 ft 5 kts 132°
2026-05-04 15:24 41.23905 -8.67395 242 ft 3 kts 121°
2026-05-04 15:24 41.23901 -8.67387 242 ft 0 kts 121°